Showing default

LIZZIESAT-2, 62383

Orbit data source: Space-Track

LIZZIESAT-2, 62383 is a payload satellite owned by Sidus Space (US) in LEO that was launched on Sat, 21 Dec 2024 UTC via an FALCON 9 launch vehicle from the Air Force Western Test Range (AFWTR). Payload-class satellites include a variety of spacecraft equipped with specific instruments for various scientific and technological missions. These include communications satellites like Starlink; space stations such as the ISS; scientific satellites like the Hubble; Earth observation satellites from companies like Planet Labs, Umbra, and HawkEye 360; GPS; miniature CubeSats for education and research; and military/defense satellites.

Loading next visibility...
Identifier
62383, 2024-247G
Orbit
LEO
Country
Flag of USUS
Related business
Manufacturer
Sidus Space
Mission
Operational Commercial Technology
Bus & Motor
LIZZIESAT, Unknown motor
Mass
~100 kg wet, ~100 kg dry
Launch date (UTC)
2024-12-21 (8 months ago)
Launch vehicle
FALCON 9
Launch site
Air Force Western Test Range (AFWTR)
Object type
Payload
Rocket body
Debris
Shape & HBR
Oct Cyl + 8 Pan, 0.7 m
Radar Cross Section
1.008 m², Medium (>0.1 m² and < 1m²)

Expand to show TLE details & history
Last TLE update: 1 day ago

TLE from 1 day ago
0 LIZZIESAT-2
1 62383U 24247G   25240.97233424  .00010125  00000-0  42395-3 0  9993
2 62383  44.9981  85.6569 0004130 219.6817 140.3763 15.23798320 38308
Epoch: 2025-08-28T23:20Z
TLE epoch observation values (Epoch: 2025-08-28T23:20:09.678Z)
Latitude
Longitude
118.18891°
Altitude
496.581 km
Speed
7.617 km/s
True Right ascension
05h 42m 37s
True Declination
0° 00' 00"
Sunlit
Object was in daylight at epoch
Visualization orbit readout
Latitude
Unknown
Longitude
Unknown
Altitude
Unknown
Speed
Unknown
Apparent Right ascension
Unknown
Apparent Declination
Unknown
Sunlit
N/A
Visualization observer readout
Local Sidereal Time
16:56:19
Azimuth
Unknown
Elevation
Unknown
Doppler factor
Unknown
Orbital elements
Apogee altitude
498.842 km
Perigee altitude
493.164 km
Semi-major axis
6,874.14 km
Eccentricity
0.00041
Inclination
44.9981°
RAAN
85.6569°
Arg. of periapsis
219.6817°
True anomaly
140.40647°
Mean anomaly
140.3763°
Eccentric anomaly
140.39139°
Mean motion
3.80816 °/min
Orbital period
94.53 mins
BSTAR
0.00042395
Loading maneuver chart data...
Computing Atmospheric mass density...
Loading historical data...
Loading historical data...
Loading historical data...
Loading historical data...
Loading historical data...
Loading historical data...
Loading historical data...

Documentation

Showing up to 5 results
|